Wind_Speed
23 23 20 19 20 20 21 22 21 19 19 19 22 25 25 23 22 20 20 19 21 25 25 23 22 22 23 23 23 23 23 23 22 20 21 23 26 28 31 34 37 40 41
25 26 23 24 23 22 24 24 24 22 21 21 22 25 26 27 26 24 21 21 22 24 25 27 27 26 25 24 24 24 23 22 23 24 25 25 27 29 30 33 36 37 38
31 30 30 29 28 27 27 26 26 25 25 25 25 26 27 27 27 28 26 24 26 26 25 27 30 31 30 29 28 27 26 26 24 23 24 25 26 29 32 34 36 37 40
34 33 34 33 31 29 30 29 29 27 27 27 27 27 28 29 29 30 30 29 30 29 28 28 32 34 34 34 34 32 30 29 28 27 27 27 29 30 32 35 38 40 42
39 37 36 37 35 32 31 30 29 29 28 28 28 28 28 29 30 31 31 31 34 35 33 31 34 36 36 37 37 35 35 35 36 36 36 36 35 35 37 38 40 43 46
36 36 37 37 36 35 32 31 30 31 32 30 30 29 30 29 31 32 32 33 35 38 37 38 38 40 42 42 40 39 40 41 41 43 45 45 44 44 44 46 48 49 50
35 35 37 35 34 34 34 32 33 34 35 33 33 32 31 31 32 32 33 35 37 40 40 41 42 44 47 48 47 46 47 48 48 46 45 47 48 51 53 55 55 57 61
35 35 35 35 35 37 36 36 37 37 37 37 37 36 34 34 34 35 37 38 39 40 42 42 46 47 48 49 50 52 52 51 51 52 53 51 52 56 60 62 64 66 69
37 34 35 36 35 37 38 38 39 39 40 41 40 39 39 38 39 39 40 42 42 43 44 47 48 49 51 51 52 54 53 54 56 57 58 59 62 66 70 72 72 73 70
38 36 38 40 39 41 40 42 42 41 40 41 40 41 41 41 42 43 44 45 46 47 49 50 52 54 54 55 56 56 55 57 59 63 65 69 73 73 76 79 77 72 70
42 42 44 44 44 42 43 43 43 41 40 40 40 41 43 44 44 46 47 48 50 51 51 52 53 55 56 55 54 57 60 63 67 69 72 75 78 81 81 76 75 74 74
46 47 47 48 47 46 46 44 42 42 42 43 44 43 43 45 46 49 49 50 51 52 54 55 56 55 57 55 59 63 67 69 72 76 79 81 83 80 80 79 77 77 78
46 47 49 47 46 45 45 45 43 43 43 45 46 46 45 47 49 50 52 53 54 55 56 56 53 55 58 61 65 68 72 77 80 83 83 79 78 79 79 79 79 81 82
47 49 48 45 45 44 44 44 44 43 44 46 46 47 48 49 50 51 53 52 53 53 52 53 56 61 64 67 71 75 78 81 82 80 76 76 79 80 80 80 79 74 69
47 48 45 44 43 44 43 43 44 43 45 47 47 49 49 50 51 51 49 50 51 52 56 59 62 66 69 71 74 77 78 77 77 76 78 78 80 76 71 68 69 69 66
50 50 46 44 43 44 44 44 43 44 45 47 48 50 51 53 54 53 54 57 57 59 58 62 66 70 71 72 73 74 74 75 78 79 77 76 65 61 62 63 64 63 59
51 52 50 46 46 47 47 47 47 47 49 50 51 52 53 55 57 59 61 62 62 62 64 66 68 71 70 70 71 74 75 77 80 78 77 64 60 60 58 56 54 51 49
49 51 52 49 49 50 52 51 50 50 52 52 53 55 56 56 60 61 60 61 63 66 69 70 70 70 70 71 72 73 73 75 79 80 69 63 60 57 53 49 46 44 44
52 51 51 49 49 51 52 52 52 52 50 51 54 55 57 60 61 63 63 64 64 64 64 65 67 69 72 72 72 72 72 73 72 70 61 58 51 50 46 43 41 40 38
54 53 50 49 48 50 52 53 53 55 55 57 58 59 59 60 61 62 61 59 60 62 65 66 66 70 71 70 72 70 70 70 59 60 56 52 49 52 48 43 42 39 35
57 53 52 51 50 51 53 52 54 55 55 57 58 58 61 60 61 60 59 60 62 64 66 67 70 70 71 70 69 69 70 62 50 50 50 51 48 50 48 45 44 39 37
57 55 54 52 52 53 53 53 54 55 57 57 58 59 59 59 59 60 62 61 64 66 68 72 71 70 70 71 70 67 62 56 47 44 45 45 44 43 48 44 42 38 35
61 59 54 53 54 55 54 54 55 55 56 58 58 58 58 58 59 62 64 64 67 70 71 74 75 74 70 70 70 65 58 55 51 47 43 40 40 39 41 44 40 38 34
62 59 56 56 57 57 56 56 56 57 59 60 60 61 60 62 64 65 67 69 71 72 72 78 77 75 73 70 65 59 55 53 56 50 49 42 38 36 37 40 41 36 31
65 62 60 60 61 60 58 58 58 59 60 61 63 63 64 67 69 70 71 71 73 75 76 80 79 79 73 73 63 58 53 52 54 54 52 52 45 38 37 35 38 36 33
67 64 64 64 64 63 62 61 62 63 64 65 67 69 70 71 71 72 73 77 79 81 83 82 82 82 74 71 64 60 55 53 53 55 56 54 53 52 44 40 38 38 33
Wind_Direction
231 232 237 246 254 262 268 273 285 292 291 294 297 300 303 303 308 308 311 311 315 323 324 325 326 326 329 332 333 335 317 305 299 295 290 284 275 271 269 268 267 268 268
229 231 240 252 256 262 267 271 278 288 291 295 298 298 300 300 302 303 299 304 308 315 317 321 321 321 320 322 323 321 326 324 310 302 300 295 291 287 281 276 274 274 271
231 233 245 253 262 262 265 268 272 280 285 292 297 298 298 297 298 302 300 299 304 310 306 314 316 317 317 317 315 316 314 312 314 316 312 307 303 298 293 290 287 281 279
235 236 240 247 257 261 262 264 269 276 284 288 291 296 299 296 297 299 303 304 305 307 306 300 305 310 311 313 312 307 307 306 304 307 307 307 308 306 304 301 296 291 288
237 239 240 246 254 257 261 261 267 276 283 287 288 290 295 296 296 299 301 302 306 306 304 299 298 303 307 308 307 304 304 302 300 299 300 301 302 304 308 309 306 299 291
238 241 243 249 250 253 256 257 267 276 281 285 285 287 291 294 295 296 298 300 303 302 306 303 301 300 304 307 306 303 302 304 301 300 302 301 299 300 302 306 307 306 302
239 243 246 244 249 252 255 259 267 273 278 282 284 285 289 294 294 296 294 294 297 299 301 303 303 302 303 304 304 304 302 303 300 299 299 299 300 300 302 305 304 304 303
240 245 246 244 251 252 253 259 268 273 278 283 286 283 286 291 293 293 293 296 296 298 298 300 302 304 304 304 304 302 303 303 303 302 301 300 300 300 300 303 302 300 300
239 246 246 246 252 255 253 257 265 275 281 282 286 286 286 288 292 292 293 293 294 296 298 298 300 300 303 304 305 305 305 304 304 303 303 303 303 302 302 303 302 300 297
239 244 250 247 251 254 253 258 265 275 279 281 283 284 286 288 291 292 293 296 296 297 298 300 303 304 305 306 306 306 305 304 305 304 305 303 305 304 304 303 300 299 296
239 245 249 247 248 256 258 262 269 275 279 282 284 286 287 289 290 293 295 297 299 300 302 304 305 306 306 307 306 305 305 304 303 304 302 303 304 304 303 301 299 296 294
236 243 249 248 248 255 261 265 270 275 279 282 287 288 288 289 289 292 296 299 301 301 301 302 306 308 308 303 304 304 304 305 305 304 306 306 305 303 301 298 296 294 292
242 247 251 252 254 258 262 269 271 274 277 282 286 288 290 292 293 293 295 296 298 302 304 307 304 303 305 305 304 304 307 306 306 306 306 305 304 302 298 296 293 291 289
245 250 252 257 262 264 267 269 272 276 278 281 285 288 290 292 294 294 296 301 302 305 305 301 302 301 303 306 306 308 306 305 305 305 307 306 305 302 299 296 295 293 290
248 254 256 259 263 266 268 272 274 277 281 281 285 287 290 290 293 299 299 298 298 298 300 302 304 305 305 304 306 305 305 306 306 309 309 308 305 302 299 297 294 291 289
248 253 256 259 264 265 266 271 275 277 279 283 285 287 289 291 293 295 296 296 297 301 303 303 303 304 305 307 307 307 308 309 309 310 311 310 306 303 300 298 295 292 291
246 250 252 257 264 267 270 272 274 278 281 283 285 285 287 289 292 295 296 298 301 301 302 301 302 303 306 306 307 307 310 311 310 313 316 315 314 313 309 305 300 295 293
246 250 253 255 261 266 269 273 276 279 280 282 284 286 288 292 293 294 296 298 300 301 301 301 302 305 306 307 308 309 313 312 313 316 318 320 319 318 313 307 304 303 300
246 248 254 256 259 264 267 271 275 278 279 280 283 285 288 290 292 293 296 298 300 300 301 303 305 306 308 309 310 312 312 314 314 315 321 322 323 325 324 320 315 309 306
245 250 254 257 259 262 266 268 271 273 278 281 284 287 290 291 293 294 296 299 301 301 303 304 305 307 309 310 311 313 313 315 314 315 321 324 326 328 326 323 322 316 312
248 251 254 258 261 264 267 270 273 276 279 282 285 287 289 291 293 294 297 300 300 302 303 304 306 308 310 309 311 312 313 316 313 315 324 326 330 330 328 328 326 323 320
247 251 253 258 261 264 267 271 274 276 279 282 285 286 289 291 294 296 298 299 300 302 305 306 307 307 310 312 311 313 312 312 315 314 320 327 331 335 331 333 333 329 324
247 248 253 258 262 264 268 272 275 278 281 284 286 288 290 292 294 295 298 299 300 303 305 306 306 308 310 310 310 310 310 312 314 314 315 319 329 338 339 338 336 329 325
244 248 253 258 261 265 268 272 276 279 281 285 286 287 288 289 293 295 296 299 302 303 306 306 307 310 310 311 310 309 307 309 313 317 318 318 321 331 343 343 338 333 327
245 250 254 258 261 264 268 271 274 278 281 283 284 286 288 290 293 294 296 299 302 302 304 306 309 312 310 310 307 303 302 304 309 312 314 320 323 322 332 341 341 341 335
245 250 255 258 260 263 267 271 274 276 279 281 284 286 289 291 292 294 296 297 299 302 305 307 309 310 308 307 303 300 299 301 303 307 311 315 319 321 324 329 337 339 339
Height
10876 10877 10878 10879 10880 10881 10881 10881 10880 10879 10878 10878 10877 10875 10874 10873 10872 10871 10870 10870 10868 10867 10864 10862 10861 10859 10857 10855 10853 10851 10849 10848 10847 10845 10845 10844 10843 10843 10842 10840 10839 10837 10836
10872 10873 10874 10876 10877 10877 10877 10878 10878 10877 10876 10875 10875 10873 10871 10870 10869 10868 10867 10866 10865 10864 10862 10859 10857 10856 10854 10853 10851 10849 10846 10844 10843 10841 10840 10838 10837 10836 10836 10835 10833 10831 10829
10867 10869 10871 10872 10873 10873 10874 10874 10874 10874 10873 10872 10871 10870 10868 10866 10865 10864 10863 10862 10861 10860 10858 10856 10854 10852 10850 10849 10847 10845 10843 10841 10839 10838 10836 10834 10832 10830 10829 10828 10827 10825 10823
10862 10864 10866 10867 10868 10869 10870 10870 10871 10870 10869 10868 10867 10866 10865 10863 10862 10860 10859 10858 10856 10855 10854 10852 10849 10848 10846 10845 10843 10841 10839 10836 10834 10832 10830 10829 10827 10824 10823 10821 10819 10817 10815
10857 10859 10861 10863 10864 10865 10866 10866 10867 10867 10866 10865 10864 10862 10861 10859 10858 10857 10855 10854 10852 10849 10848 10846 10844 10842 10841 10840 10837 10835 10833 10832 10829 10827 10824 10822 10821 10819 10816 10814 10811 10809 10806
10852 10854 10856 10857 10859 10860 10861 10862 10862 10862 10861 10861 10859 10858 10857 10856 10855 10853 10852 10850 10848 10845 10843 10841 10839 10837 10835 10834 10832 10830 10827 10825 10823 10820 10817 10814 10812 10810 10810 10807 10804 10801 10797
10847 10849 10851 10853 10854 10856 10857 10857 10857 10857 10856 10856 10855 10854 10853 10852 10851 10849 10847 10845 10843 10841 10839 10837 10834 10832 10829 10827 10825 10823 10820 10817 10815 10813 10810 10807 10804 10800 10798 10796 10795 10790 10787
10841 10843 10846 10848 10849 10850 10851 10852 10852 10852 10852 10851 10850 10849 10848 10847 10846 10844 10842 10840 10838 10836 10834 10833 10830 10826 10823 10820 10817 10813 10811 10808 10805 10803 10800 10798 10796 10792 10788 10785 10783 10777 10773
10835 10838 10841 10842 10844 10845 10846 10846 10847 10847 10847 10846 10845 10844 10843 10841 10840 10838 10836 10834 10832 10831 10828 10825 10823 10820 10817 10813 10810 10806 10802 10799 10795 10792 10790 10787 10783 10780 10775 10771 10767 10762 10759
10830 10832 10834 10836 10837 10838 10840 10841 10842 10842 10841 10840 10839 10838 10837 10835 10833 10831 10829 10828 10825 10824 10821 10818 10815 10811 10808 10804 10801 10797 10793 10790 10786 10783 10778 10773 10769 10765 10759 10755 10750 10745 10741
10824 10825 10826 10827 10831 10833 10834 10836 10836 10836 10834 10834 10833 10832 10830 10828 10827 10824 10822 10821 10818 10816 10813 10810 10807 10804 10800 10796 10792 10788 10783 10779 10775 10771 10766 10761 10755 10749 10742 10737 10733 10728 10725
10815 10818 10819 10821 10826 10827 10828 10829 10830 10829 10828 10827 10826 10824 10823 10821 10820 10817 10816 10813 10811 10808 10805 10802 10799 10794 10791 10787 10783 10778 10773 10768 10764 10758 10753 10746 10738 10731 10724 10719 10714 10708 10704
10811 10812 10814 10817 10820 10822 10822 10823 10823 10822 10822 10820 10819 10817 10816 10814 10812 10811 10809 10806 10803 10800 10797 10794 10790 10786 10782 10777 10771 10766 10761 10755 10749 10743 10739 10731 10722 10714 10706 10699 10694 10688 10683
10805 10806 10808 10812 10813 10815 10815 10815 10815 10815 10814 10813 10811 10810 10808 10807 10805 10802 10800 10797 10795 10793 10790 10785 10781 10776 10771 10766 10759 10755 10749 10742 10735 10728 10723 10714 10704 10694 10685 10677 10670 10665 10660
10799 10798 10803 10806 10807 10807 10808 10808 10808 10808 10806 10805 10804 10802 10801 10799 10797 10795 10793 10789 10787 10785 10781 10776 10771 10766 10761 10756 10751 10744 10735 10728 10720 10712 10705 10696 10685 10674 10664 10656 10650 10645 10641
10791 10793 10797 10799 10800 10800 10801 10801 10802 10800 10799 10798 10797 10795 10792 10791 10790 10787 10783 10781 10778 10776 10773 10767 10761 10755 10750 10745 10738 10731 10722 10715 10705 10697 10688 10677 10666 10657 10648 10639 10630 10624 10622
10784 10787 10789 10792 10793 10794 10794 10794 10794 10794 10792 10791 10788 10786 10784 10782 10781 10777 10774 10771 10769 10767 10762 10757 10750 10745 10740 10735 10728 10719 10711 10701 10690 10681 10672 10659 10650 10641 10631 10621 10615 10610 10606
10777 10780 10782 10785 10786 10787 10787 10787 10787 10786 10784 10782 10779 10777 10775 10774 10771 10768 10765 10763 10760 10755 10750 10745 10738 10734 10730 10723 10716 10708 10700 10689 10677 10666 10657 10646 10637 10626 10618 10611 10604 10598 10594
10770 10772 10776 10778 10780 10780 10780 10780 10779 10777 10775 10772 10770 10768 10767 10765 10762 10759 10757 10753 10749 10744 10737 10734 10729 10721 10716 10711 10703 10697 10689 10678 10667 10656 10648 10637 10628 10619 10611 10603 10596 10591 10585
10762 10765 10769 10771 10772 10772 10772 10771 10770 10767 10765 10762 10761 10761 10757 10754 10752 10749 10746 10742 10737 10732 10727 10724 10718 10712 10705 10700 10691 10685 10677 10668 10658 10649 10641 10631 10621 10612 10605 10599 10592 10585 10579
10756 10759 10760 10762 10762 10763 10762 10761 10760 10758 10756 10754 10753 10751 10747 10745 10742 10739 10737 10732 10726 10722 10717 10712 10708 10702 10695 10689 10683 10673 10664 10657 10650 10641 10633 10626 10618 10608 10599 10593 10585 10579 10573
10748 10751 10751 10753 10753 10754 10753 10752 10750 10749 10747 10745 10743 10739 10737 10735 10732 10729 10726 10722 10717 10712 10708 10702 10696 10692 10685 10676 10670 10663 10656 10648 10641 10636 10629 10623 10614 10606 10595 10588 10581 10575 10569
10739 10741 10742 10743 10744 10744 10744 10742 10740 10738 10737 10734 10732 10730 10727 10724 10721 10718 10715 10711 10706 10700 10695 10690 10685 10680 10675 10667 10660 10652 10644 10638 10633 10628 10623 10618 10611 10603 10594 10585 10578 10573 10566
10730 10731 10733 10735 10735 10735 10734 10731 10730 10728 10726 10724 10722 10719 10716 10712 10710 10706 10703 10699 10694 10687 10683 10677 10673 10668 10662 10657 10650 10642 10635 10629 10623 10620 10614 10611 10606 10601 10593 10584 10577 10571 10565
10720 10722 10724 10725 10725 10725 10723 10720 10719 10718 10717 10714 10710 10707 10704 10702 10698 10695 10690 10685 10680 10675 10671 10666 10661 10656 10649 10645 10640 10633 10627 10621 10615 10610 10608 10602 10597 10593 10590 10585 10576 10570 10565
10711 10713 10714 10714 10713 10713 10712 10711 10710 10708 10705 10702 10698 10695 10693 10689 10685 10681 10676 10671 10667 10663 10659 10654 10649 10644 10638 10633 10628 10623 10618 10615 10610 10604 10599 10595 10590 10586 10582 10581 10576 10570 10565